period_start,C,m1,H,J0,J1,J2,J3,J4,J5,JA,JB,JC,JD,JJ,JK,JN,#
2016-08-15 00:46:53,0.00,0.00,0.00,15.50,14.17,13.77,12.59,40.05,1012.31,1885.86,3196.57,2874.43,3270.44,523.63,533.74,0.01,0000 0000 0000 0000 000000
2016-08-15 00:51:54,0.01,0.00,0.00,15.66,14.23,15.64,14.39,45.73,1012.77,2093.39,3541.93,3187.98,3626.33,600.81,609.72,0.06,0000 0000 0000 0000 000000
2016-08-15 00:56:55,0.03,0.01,0.00,15.85,14.32,16.56,14.55,46.06,1013.16,2093.08,3538.22,3185.50,3623.56,600.06,608.72,0.11,0000 0000 0000 0000 000000
2016-08-15 01:01:56,0.05,0.01,0.00,16.04,14.44,17.05,14.55,46.13,1013.43,2093.01,3535.86,3183.66,3621.48,599.66,608.12,0.16,0000 0000 0000 0000 000000
2016-08-15 01:06:57,0.07,0.02,0.00,16.15,14.59,17.44,14.60,45.92,1013.69,2092.72,3533.53,3181.84,3619.51,599.99,608.40,0.21,0000 0000 0000 0000 000000
2016-08-15 01:11:59,0.06,0.02,0.00,16.30,14.77,17.88,14.47,45.78,1013.91,2092.04,3531.07,3179.98,3617.17,599.88,608.03,0.26,0000 0000 0000 0000 000000
2016-08-15 01:17:00,0.05,0.02,0.00,16.49,14.99,18.35,14.44,45.77,1014.14,2091.44,3528.62,3177.93,3614.86,599.40,607.53,0.31,0000 0000 0000 0000 000000
2016-08-15 01:22:01,0.02,0.03,0.00,16.69,15.23,18.78,14.50,45.78,1014.18,2090.70,3526.76,3176.17,3613.18,600.05,607.58,0.36,0000 0000 0000 0000 000000
2016-08-15 01:27:03,0.08,0.03,0.00,16.89,15.49,19.24,14.53,45.77,1014.28,2089.84,3524.30,3174.10,3610.79,599.94,607.18,0.41,0000 0000 0000 0000 000000
2016-08-15 01:32:04,0.05,0.03,0.00,17.10,15.78,19.71,14.54,45.81,1014.48,2088.89,3521.68,3171.87,3608.17,599.94,606.86,0.46,0000 0000 0000 0000 000000
2016-08-15 01:37:05,0.05,0.03,0.00,17.32,16.08,20.17,14.61,45.70,1014.65,2087.92,3519.15,3169.57,3605.48,600.13,606.63,0.51,0000 0000 0000 0000 000000
2016-08-15 01:42:07,0.05,0.04,0.00,17.51,16.40,20.63,14.59,45.82,1014.66,2086.90,3516.44,3167.21,3602.79,600.29,606.36,0.56,0000 0000 0000 0000 000000
2016-08-15 01:47:08,0.02,0.04,0.00,17.73,16.73,21.08,14.59,45.92,1014.75,2085.79,3513.68,3164.72,3600.04,600.17,605.98,0.61,0000 0000 0000 0000 000000
2016-08-15 01:52:09,0.03,0.04,0.00,17.91,17.06,21.53,14.57,46.12,1015.07,2084.63,3510.99,3162.33,3597.30,600.01,605.50,0.66,0000 0000 0000 0000 000000
2016-08-15 01:57:10,0.03,0.04,0.00,18.09,17.40,21.97,14.53,46.03,1015.15,2083.42,3508.23,3160.09,3594.57,599.88,604.96,0.71,0000 0000 0000 0000 000000
2016-08-15 02:02:12,0.05,0.04,0.00,18.27,17.75,22.38,14.60,46.02,1015.15,2082.20,3505.22,3157.84,3591.72,600.15,604.87,0.76,0000 0000 0000 0000 000000
2016-08-15 02:07:13,0.06,0.04,0.00,18.42,18.10,22.79,14.59,46.12,1015.30,2081.08,3502.49,3155.38,3588.84,600.03,604.64,0.81,0000 0000 0000 0000 000000
2016-08-15 02:12:15,0.04,0.05,0.00,18.57,18.44,23.17,14.53,45.96,1015.51,2079.90,3499.42,3152.68,3585.71,600.11,604.54,0.86,0000 0000 0000 0000 000000
2016-08-15 02:17:16,0.02,0.05,0.00,18.73,18.77,23.54,14.57,45.83,1015.69,2078.67,3496.52,3150.24,3582.90,599.95,604.08,0.91,0000 0000 0000 0000 000000
2016-08-15 02:22:17,0.05,0.05,0.00,18.88,19.11,23.87,14.61,46.11,1016.03,2077.48,3493.65,3147.76,3580.07,600.12,604.28,0.96,0000 0000 0000 0000 000000
2016-08-15 02:27:19,0.04,0.05,0.00,19.03,19.44,24.19,14.60,46.00,1016.09,2076.27,3490.85,3145.34,3577.16,600.02,603.84,1.01,0000 0000 0000 0000 000000
2016-08-15 02:32:20,0.04,0.06,0.00,19.19,19.76,24.49,14.52,45.98,1016.13,2075.00,3487.95,3142.91,3574.31,599.97,603.51,1.06,0000 0000 0000 0000 000000
2016-08-15 02:37:21,0.02,0.06,0.00,19.33,20.07,24.79,14.61,45.87,1016.45,2073.81,3485.28,3140.61,3571.60,600.06,603.45,1.11,0000 0000 0000 0000 000000
2016-08-15 02:42:22,0.03,0.06,0.00,19.48,20.38,25.06,14.59,45.92,1016.63,2072.66,3482.53,3138.30,3568.76,600.19,603.53,1.16,0000 0000 0000 0000 000000
2016-08-15 02:47:23,0.04,0.06,0.00,19.63,20.68,25.30,14.57,45.83,1016.89,2071.51,3479.61,3136.05,3565.90,600.03,603.23,1.21,0000 0000 0000 0000 000000
2016-08-15 02:52:24,0.03,0.06,0.00,19.87,20.97,25.54,14.58,45.77,1017.09,2070.29,3476.86,3133.93,3563.05,600.04,602.77,1.26,0000 0000 0000 0000 000000
2016-08-15 02:57:26,0.05,0.06,0.00,20.25,21.26,25.75,14.58,45.62,1017.11,2069.09,3473.97,3131.47,3560.18,600.11,602.05,1.31,0000 0000 0000 0000 000000
2016-08-15 03:02:27,0.03,0.07,0.00,20.58,21.54,25.98,14.54,45.53,1017.21,2067.90,3471.15,3129.15,3557.32,600.21,601.48,1.36,0000 0000 0000 0000 000000
2016-08-15 03:07:28,0.04,0.07,0.00,20.86,21.82,26.25,14.47,45.48,1017.54,2066.78,3468.29,3126.77,3554.46,599.87,600.80,1.41,0000 0000 0000 0000 000000
2016-08-15 03:12:29,0.06,0.07,0.00,21.13,22.10,26.50,14.52,45.46,1017.59,2065.65,3465.09,3123.82,3551.13,600.03,600.44,1.46,0000 0000 0000 0000 000000
2016-08-15 03:17:31,0.04,0.08,0.00,21.39,22.37,26.77,14.47,45.51,1017.66,2064.47,3462.33,3121.54,3548.26,599.92,599.80,1.51,0000 0000 0000 0000 000000
2016-08-15 03:22:32,-0.02,0.08,0.00,21.60,22.65,27.02,14.50,45.60,1017.95,2063.06,3460.30,3119.81,3545.51,600.08,599.70,1.56,0000 0000 0000 0000 000000
2016-08-15 03:27:33,0.01,0.08,0.00,21.89,22.92,27.26,14.47,45.72,1018.08,2061.73,3457.61,3117.94,3542.69,600.00,599.13,1.61,0000 0000 0000 0000 000000
2016-08-15 03:32:35,0.02,0.08,0.00,22.89,23.20,27.57,14.47,45.43,1018.18,2060.54,3455.08,3115.99,3539.90,600.45,597.60,1.66,0000 0000 0000 0000 000000
2016-08-15 03:37:36,0.05,0.08,0.00,23.72,23.48,27.91,14.33,44.97,1018.41,2059.31,3452.29,3113.71,3537.02,599.96,595.68,1.71,0000 0000 0000 0000 000000
2016-08-15 03:42:38,0.04,0.08,0.00,24.05,23.77,28.24,14.31,44.69,1018.55,2057.97,3449.19,3111.34,3533.95,600.06,595.13,1.76,0000 0000 0000 0000 000000
2016-08-15 03:47:39,0.05,0.08,0.00,24.27,24.05,28.52,14.30,44.63,1018.57,2056.77,3445.75,3108.64,3530.73,600.09,594.70,1.81,0000 0000 0000 0000 000000
2016-08-15 03:52:40,0.05,0.09,0.00,24.42,24.33,28.77,14.32,44.57,1018.59,2055.57,3442.32,3105.96,3527.45,599.99,594.38,1.86,0000 0000 0000 0000 000000
2016-08-15 03:57:41,0.06,0.09,0.00,24.55,24.60,28.98,14.30,44.73,1018.63,2054.42,3438.94,3103.25,3524.25,600.06,594.21,1.91,0000 0000 0000 0000 000000
2016-08-15 04:02:43,0.08,0.09,0.00,24.67,24.87,29.18,14.23,44.62,1018.96,2053.27,3435.44,3100.59,3521.00,599.75,593.83,1.96,0000 0000 0000 0000 000000
2016-08-15 04:07:44,0.06,0.10,0.00,24.76,25.12,29.36,14.28,44.77,1019.06,2052.19,3432.01,3098.05,3517.95,599.96,593.96,2.01,0000 0000 0000 0000 000000
2016-08-15 04:12:45,0.08,0.10,0.00,24.83,25.36,29.51,14.28,44.67,1019.09,2051.14,3428.60,3095.40,3514.83,599.78,593.66,2.06,0000 0000 0000 0000 000000
2016-08-15 04:17:47,0.07,0.10,0.00,24.88,25.59,29.64,14.40,44.73,1019.39,2050.12,3425.36,3092.94,3511.76,600.30,594.20,2.11,0000 0000 0000 0000 000000
2016-08-15 04:22:48,0.06,0.11,0.00,24.95,25.81,29.62,14.28,44.72,1019.50,2049.11,3422.25,3090.50,3508.78,599.74,593.50,2.16,0000 0000 0000 0000 000000
2016-08-15 04:27:49,0.06,0.11,0.00,25.01,26.02,29.63,14.29,44.67,1019.56,2048.08,3419.21,3088.18,3505.92,600.10,593.82,2.21,0000 0000 0000 0000 000000
2016-08-15 04:32:51,0.06,0.11,0.00,25.06,26.22,29.67,14.19,44.70,1019.60,2047.10,3416.22,3085.89,3503.12,599.86,593.43,2.26,0000 0000 0000 0000 000000
2016-08-15 04:37:52,0.04,0.12,0.00,25.12,26.40,29.69,14.31,44.77,1019.95,2046.49,3413.65,3083.88,3500.58,600.14,593.85,2.32,0000 0000 0000 0000 000000
2016-08-15 04:42:53,0.06,0.12,0.00,25.19,26.58,29.76,14.26,44.77,1020.03,2045.73,3411.15,3081.86,3498.16,599.79,593.42,2.37,0000 0000 0000 0000 000000
2016-08-15 04:47:54,0.08,0.12,0.00,25.23,26.74,29.85,14.31,44.74,1020.03,2044.98,3408.84,3079.70,3495.69,599.90,593.46,2.42,0000 0000 0000 0000 000000
2016-08-15 04:52:56,0.02,0.12,0.00,25.27,26.89,29.93,14.27,44.61,1020.07,2044.14,3406.86,3077.91,3493.54,600.07,593.60,2.47,0000 0000 0000 0000 000000
2016-08-15 04:57:57,0.02,0.13,0.00,25.34,27.04,30.03,14.30,44.58,1020.29,2043.42,3404.98,3076.47,3491.67,600.04,593.41,2.52,0000 0000 0000 0000 000000
2016-08-15 05:02:58,0.01,0.13,0.00,25.39,27.18,30.12,14.34,44.58,1020.52,2042.74,3403.31,3075.01,3489.89,600.24,593.79,2.57,0000 0000 0000 0000 000000
2016-08-15 05:08:00,0.05,0.13,0.00,25.44,27.30,30.21,14.32,44.50,1020.55,2042.02,3401.63,3073.68,3488.26,600.08,593.54,2.62,0000 0000 0000 0000 000000
2016-08-15 05:13:01,-0.00,0.13,0.00,25.49,27.42,30.28,14.31,44.60,1020.78,2041.38,3400.02,3072.45,3486.64,600.36,593.65,2.67,0000 0000 0000 0000 000000
2016-08-15 05:18:02,0.06,0.13,0.00,25.54,27.53,30.36,14.32,44.57,1020.96,2040.98,3398.54,3071.36,3485.24,600.25,593.68,2.72,0000 0000 0000 0000 000000
2016-08-15 05:23:04,-0.02,0.13,0.00,25.58,27.64,30.43,14.31,44.83,1021.01,2040.23,3397.23,3070.40,3483.81,600.11,593.55,2.77,0000 0000 0000 0000 000000
2016-08-15 05:28:05,0.05,0.13,0.00,25.61,27.74,30.51,14.28,44.80,1021.03,2039.94,3396.10,3069.49,3482.62,599.91,593.47,2.82,0000 0000 0000 0000 000000
2016-08-15 05:33:07,-0.02,0.13,0.00,25.64,27.83,30.59,14.29,44.78,1021.14,2039.15,3394.92,3068.46,3481.39,599.95,593.29,2.87,0000 0000 0000 0000 000000
2016-08-15 05:38:08,0.05,0.13,0.00,25.65,27.92,30.66,14.30,44.88,1021.20,2038.89,3393.63,3067.53,3480.09,599.80,593.21,2.92,0000 0000 0000 0000 000000
2016-08-15 05:43:10,-0.01,0.13,0.00,25.68,28.00,30.72,14.31,44.69,1021.38,2038.09,3392.41,3066.37,3478.67,600.12,593.67,2.97,0000 0000 0000 0000 000000
2016-08-15 05:48:11,0.06,0.14,0.00,25.71,28.08,30.78,14.30,44.64,1021.50,2037.99,3391.10,3065.39,3477.27,600.05,593.61,3.02,0000 0000 0000 0000 000000
2016-08-15 05:53:12,0.02,0.14,0.00,25.75,28.16,30.85,14.23,44.65,1021.59,2037.38,3389.24,3063.89,3475.27,599.74,593.07,3.07,0000 0000 0000 0000 000000
2016-08-15 05:58:13,0.20,0.14,0.00,25.79,28.22,30.90,14.29,44.63,1021.86,2037.01,3385.36,3061.13,3471.92,599.91,593.48,3.12,0000 0000 0000 0000 000000
2016-08-15 06:03:15,0.11,0.15,0.00,25.82,28.29,30.97,14.32,44.67,1021.99,2036.85,3381.94,3058.68,3468.87,600.17,593.75,3.17,0000 0000 0000 0000 000000
2016-08-15 06:08:16,0.01,0.16,0.00,25.82,28.35,31.02,14.31,44.67,1022.02,2036.12,3380.47,3057.33,3467.19,599.96,593.65,3.22,0000 0000 0000 0000 000000
2016-08-15 06:13:17,0.05,0.16,0.00,25.82,28.40,31.07,14.24,44.67,1022.27,2036.00,3379.38,3056.47,3466.00,599.62,593.43,3.27,0000 0000 0000 0000 000000
2016-08-15 06:18:19,0.03,0.16,0.00,25.81,28.46,31.12,14.25,44.66,1022.46,2035.84,3378.21,3055.75,3464.85,599.90,593.77,3.32,0000 0000 0000 0000 000000
2016-08-15 06:23:20,0.09,0.16,0.00,25.80,28.51,31.17,14.37,44.54,1022.45,2035.15,3375.31,3053.73,3462.41,600.04,593.89,3.37,0000 0000 0000 0000 000000
2016-08-15 06:28:21,0.07,0.17,0.00,25.80,28.56,31.22,14.30,44.69,1022.44,2034.99,3373.07,3052.05,3460.25,600.01,593.92,3.42,0000 0000 0000 0000 000000
2016-08-15 06:33:23,0.13,0.17,0.00,25.77,28.61,31.27,14.34,44.70,1022.48,2034.96,3370.86,3050.33,3458.19,600.16,594.07,3.47,0000 0000 0000 0000 000000
2016-08-15 06:38:24,0.10,0.18,0.00,25.76,28.65,31.32,14.31,44.68,1022.48,2034.44,3367.52,3047.80,3455.24,599.74,593.74,3.52,0000 0000 0000 0000 000000
2016-08-15 06:43:26,0.06,0.18,0.00,25.75,28.68,31.35,14.37,44.64,1022.75,2034.03,3365.66,3046.39,3453.39,599.89,593.99,3.57,0000 0000 0000 0000 000000
2016-08-15 06:48:27,0.06,0.19,0.00,25.75,28.72,31.38,14.39,44.74,1022.96,2034.00,3364.30,3045.23,3452.00,600.09,594.41,3.62,0000 0000 0000 0000 000000
2016-08-15 06:53:28,0.02,0.19,0.00,25.75,28.76,31.41,14.35,44.67,1022.97,2033.99,3363.61,3044.99,3451.09,600.18,594.43,3.67,0000 0000 0000 0000 000000
2016-08-15 06:58:29,-0.00,0.19,0.00,25.74,28.79,31.43,14.32,44.77,1022.96,2033.68,3363.00,3044.38,3450.26,600.04,594.31,3.72,0000 0000 0000 0000 000000
2016-08-15 07:03:31,-0.01,0.19,0.00,25.72,28.82,31.47,14.35,44.73,1022.98,2033.10,3362.38,3044.00,3449.48,599.94,594.29,3.77,0000 0000 0000 0000 000000
2016-08-15 07:08:32,0.03,0.19,0.00,25.72,28.85,31.50,14.34,44.65,1023.09,2033.00,3361.77,3043.44,3448.75,600.01,594.36,3.82,0000 0000 0000 0000 000000
2016-08-15 07:13:33,0.01,0.19,0.00,25.72,28.87,31.52,14.32,44.52,1023.41,2032.99,3361.03,3043.00,3448.03,599.32,593.98,3.87,0000 0000 0000 0000 000000
2016-08-15 07:18:35,0.04,0.19,0.00,25.71,28.90,31.55,14.36,44.74,1023.45,2032.97,3360.39,3042.49,3447.25,600.15,594.77,3.92,0000 0000 0000 0000 000000
2016-08-15 07:23:36,0.01,0.19,0.00,25.69,28.92,31.57,14.33,44.73,1023.46,2032.81,3359.71,3041.91,3446.32,599.90,594.64,3.97,0000 0000 0000 0000 000000
2016-08-15 07:28:37,-0.01,0.19,0.00,25.67,28.94,31.60,14.37,44.75,1023.48,2032.21,3358.99,3041.12,3445.42,599.99,594.73,4.02,0000 0000 0000 0000 000000
2016-08-15 07:33:39,0.01,0.19,0.00,25.67,28.96,31.62,14.35,44.83,1023.48,2032.05,3358.23,3041.00,3444.99,599.90,594.76,4.07,0000 0000 0000 0000 000000
2016-08-15 07:38:40,0.01,0.19,0.00,25.65,28.97,31.64,14.42,44.84,1023.65,2032.02,3358.00,3040.97,3444.41,599.90,594.76,4.12,0000 0000 0000 0000 000000
2016-08-15 07:43:41,0.03,0.19,0.00,25.65,29.00,31.64,14.31,44.62,1023.90,2032.00,3357.42,3040.55,3443.88,599.80,594.70,4.17,0000 0000 0000 0000 000000
2016-08-15 07:48:43,0.01,0.20,0.00,25.65,29.00,31.65,14.37,44.83,1023.71,2032.00,3356.99,3040.03,3443.09,600.22,595.15,4.22,0000 0000 0000 0000 000000
2016-08-15 07:53:44,0.01,0.20,0.00,25.64,29.02,31.67,14.34,44.96,1023.59,2032.00,3356.31,3040.00,3442.94,599.88,594.69,4.27,0000 0000 0000 0000 000000
2016-08-15 07:58:45,0.01,0.20,0.00,25.62,29.02,31.67,14.41,44.99,1023.72,2031.99,3356.00,3040.00,3442.21,599.93,594.73,4.32,0000 0000 0000 0000 000000
2016-08-15 08:03:46,0.01,0.20,0.00,25.61,29.04,31.69,14.43,44.93,1023.90,2031.95,3355.63,3039.93,3441.99,599.90,594.90,4.37,0000 0000 0000 0000 000000
2016-08-15 08:08:48,0.02,0.20,0.00,25.60,29.05,31.69,14.42,44.77,1023.94,2031.96,3355.04,3039.70,3441.52,600.13,595.26,4.42,0000 0000 0000 0000 000000
2016-08-15 08:13:49,-0.01,0.20,0.00,25.58,29.05,31.70,14.38,44.63,1023.99,2031.74,3354.98,3039.19,3441.01,599.98,595.16,4.47,0000 0000 0000 0000 000000
2016-08-15 08:18:50,0.02,0.20,0.00,25.57,29.05,31.70,14.38,44.53,1024.10,2031.50,3354.43,3039.01,3440.67,600.02,595.53,4.52,0000 0000 0000 0000 000000
2016-08-15 08:23:51,-0.03,0.20,0.00,25.55,29.07,31.71,14.37,44.65,1024.08,2031.15,3354.00,3038.97,3440.02,600.28,595.61,4.58,0000 0000 0000 0000 000000
2016-08-15 08:28:53,0.02,0.20,0.00,25.55,29.07,31.71,14.33,44.68,1024.36,2031.08,3353.73,3038.60,3439.72,599.73,595.19,4.63,0000 0000 0000 0000 000000
2016-08-15 08:33:54,0.02,0.20,0.00,25.54,29.07,31.71,14.50,44.53,1024.43,2031.04,3353.03,3038.02,3439.01,600.32,595.75,4.68,0000 0000 0000 0000 000000
2016-08-15 08:38:56,0.02,0.20,0.00,25.53,29.07,31.72,14.36,44.67,1024.54,2031.02,3352.51,3037.96,3438.45,600.18,595.64,4.73,0000 0000 0000 0000 000000
2016-08-15 08:43:57,0.03,0.20,0.00,25.52,29.07,31.73,14.49,44.67,1024.81,2031.02,3351.94,3037.38,3437.88,599.90,595.58,4.78,0000 0000 0000 0000 000000
2016-08-15 08:48:58,0.02,0.21,0.00,25.51,29.08,31.73,14.45,44.75,1024.85,2031.00,3351.15,3037.01,3437.11,600.34,596.16,4.83,0000 0000 0000 0000 000000
2016-08-15 08:54:00,0.00,0.21,0.00,25.51,29.09,31.72,14.38,44.63,1024.92,2031.00,3350.99,3036.98,3436.81,600.12,595.88,4.88,0000 0000 0000 0000 000000
2016-08-15 08:59:01,0.03,0.21,0.00,25.52,29.10,31.72,14.32,44.48,1025.01,2031.00,3350.22,3036.59,3436.07,599.90,595.70,4.93,0000 0000 0000 0000 000000
2016-08-15 09:04:02,0.02,0.21,0.00,25.52,29.10,31.73,14.48,44.45,1025.34,2031.00,3349.83,3036.02,3435.59,600.61,596.77,4.98,0000 0000 0000 0000 000000
2016-08-15 09:09:03,0.06,0.21,0.00,25.52,29.10,31.74,14.43,44.48,1025.40,2031.00,3348.59,3035.41,3434.60,600.12,596.29,5.03,0000 0000 0000 0000 000000
2016-08-15 09:14:05,0.08,0.22,0.00,25.52,29.10,31.74,14.43,44.55,1025.40,2031.00,3346.69,3034.16,3433.08,600.10,596.26,5.08,0000 0000 0000 0000 000000
2016-08-15 09:19:06,0.07,0.22,0.00,25.51,29.10,31.74,14.40,44.42,1025.42,2030.99,3345.02,3033.08,3431.72,599.85,596.02,5.13,0000 0000 0000 0000 000000
2016-08-15 09:24:07,0.11,0.22,0.00,25.50,29.11,31.73,14.43,44.48,1025.42,2030.98,3342.91,3031.63,3430.00,599.93,596.09,5.18,0000 0000 0000 0000 000000
2016-08-15 09:29:08,0.10,0.23,0.00,25.50,29.12,31.74,14.38,44.39,1025.44,2030.98,3340.53,3029.89,3427.92,599.80,595.98,5.23,0000 0000 0000 0000 000000
2016-08-15 09:34:10,0.04,0.23,0.00,25.50,29.12,31.75,14.36,44.46,1025.68,2030.97,3339.22,3029.06,3427.03,599.82,596.08,5.28,0000 0000 0000 0000 000000
2016-08-15 09:39:11,0.04,0.23,0.00,25.50,29.12,31.74,14.37,44.36,1025.75,2030.98,3338.38,3028.72,3426.28,599.95,596.37,5.33,0000 0000 0000 0000 000000
2016-08-15 09:44:12,0.09,0.24,0.00,25.50,29.12,31.74,14.46,44.34,1025.88,2030.97,3336.46,3027.45,3424.83,599.90,596.35,5.38,0000 0000 0000 0000 000000
2016-08-15 09:49:13,0.06,0.24,0.00,25.50,29.12,31.74,14.33,44.33,1025.89,2030.96,3334.81,3026.10,3423.38,599.60,596.04,5.43,0000 0000 0000 0000 000000
2016-08-15 09:54:15,0.01,0.24,0.00,25.51,29.12,31.75,14.50,44.23,1025.88,2030.94,3334.06,3026.00,3422.99,600.19,596.63,5.48,0000 0000 0000 0000 000000
2016-08-15 09:59:16,0.08,0.25,0.00,25.52,29.12,31.75,14.45,44.37,1025.88,2030.95,3332.87,3025.20,3421.83,600.22,596.61,5.53,0000 0000 0000 0000 000000
2016-08-15 10:04:17,0.12,0.25,0.00,25.52,29.12,31.75,14.37,44.35,1025.89,2030.96,3330.24,3023.45,3419.80,599.51,595.95,5.58,0000 0000 0000 0000 000000
2016-08-15 10:09:19,0.06,0.26,0.00,25.54,29.12,31.76,14.44,44.45,1025.90,2030.92,3328.52,3022.28,3418.44,599.89,596.25,5.63,0000 0000 0000 0000 000000
2016-08-15 10:14:20,0.01,0.26,0.00,25.56,29.13,31.76,14.36,44.42,1025.90,2030.85,3327.95,3021.97,3417.61,599.90,596.20,5.68,0000 0000 0000 0000 000000
2016-08-15 10:19:21,0.01,0.26,0.00,25.57,29.15,31.75,14.43,44.29,1025.90,2030.82,3327.44,3021.94,3417.08,599.87,596.11,5.73,0000 0000 0000 0000 000000
2016-08-15 10:24:23,0.04,0.26,0.00,25.57,29.15,31.75,14.42,44.39,1025.95,2030.86,3326.78,3021.26,3416.79,599.71,596.09,5.78,0000 0000 0000 0000 000000
2016-08-15 10:29:24,0.17,0.27,0.00,25.59,29.15,31.75,14.45,44.38,1026.23,2030.75,3323.53,3019.10,3414.19,600.08,596.54,5.83,0000 0000 0000 0000 000000
2016-08-15 10:34:26,0.06,0.27,0.00,25.62,29.15,31.76,14.33,44.42,1026.35,2030.47,3321.15,3017.52,3412.28,599.98,596.32,5.88,0000 0000 0000 0000 000000
2016-08-15 10:39:27,0.25,0.28,0.00,25.64,29.16,31.76,14.46,44.35,1026.38,2030.38,3316.75,3014.44,3408.78,599.89,596.34,5.93,0000 0000 0000 0000 000000
2016-08-15 10:44:29,0.33,0.30,0.00,25.66,29.17,31.75,14.44,44.31,1026.38,2030.16,3308.75,3009.03,3402.61,600.27,596.69,5.98,0000 0000 0000 0000 000000
2016-08-15 10:49:30,0.06,0.30,0.00,25.67,29.17,31.76,14.38,44.52,1026.40,2030.11,3306.31,3007.58,3400.69,599.80,596.22,6.03,0000 0000 0000 0000 000000
2016-08-15 10:54:31,0.17,0.31,0.00,25.70,29.17,31.77,14.50,44.41,1026.41,2030.07,3302.93,3005.33,3398.16,600.61,596.84,6.08,0000 0000 0000 0000 000000
2016-08-15 10:59:33,0.15,0.32,0.00,25.74,29.20,31.77,14.39,44.34,1026.41,2030.10,3299.11,3002.68,3395.23,599.67,595.99,6.13,0000 0000 0000 0000 000000
2016-08-15 11:04:34,0.02,0.32,0.00,25.81,29.20,31.78,14.36,44.29,1026.67,2030.03,3297.99,3002.01,3394.11,599.25,595.64,6.18,0000 0000 0000 0000 000000
2016-08-15 11:09:36,0.03,0.33,0.00,25.90,29.20,31.79,14.42,44.27,1026.67,2030.00,3297.09,3001.80,3393.60,599.82,595.87,6.23,0000 0000 0000 0000 000000
2016-08-15 11:14:37,0.03,0.33,0.00,25.98,29.21,31.78,14.31,44.15,1026.79,2030.00,3296.59,3001.06,3393.02,600.01,596.01,6.28,0000 0000 0000 0000 000000
2016-08-15 11:19:38,0.01,0.33,0.00,26.03,29.22,31.80,14.36,44.23,1026.88,2030.00,3296.02,3001.00,3392.76,600.24,596.20,6.33,0000 0000 0000 0000 000000
2016-08-15 11:24:40,0.02,0.33,0.00,26.05,29.22,31.81,14.39,44.24,1026.88,2030.00,3295.59,3000.92,3392.04,600.12,596.05,6.38,0000 0000 0000 0000 000000
2016-08-15 11:29:41,0.03,0.33,0.00,26.05,29.22,31.82,14.34,44.26,1026.87,2030.00,3294.92,3000.18,3391.68,599.72,595.63,6.43,0000 0000 0000 0000 000000
2016-08-15 11:34:42,0.02,0.33,0.00,26.03,29.22,31.83,14.40,44.34,1026.87,2030.00,3294.11,3000.00,3391.03,600.20,596.15,6.48,0000 0000 0000 0000 000000
2016-08-15 11:39:44,0.02,0.33,0.00,25.97,29.23,31.84,14.37,44.17,1026.88,2030.00,3293.64,2999.81,3390.79,599.89,595.92,6.53,0000 0000 0000 0000 000000
2016-08-15 11:44:45,0.03,0.34,0.00,25.91,29.23,31.84,14.37,44.09,1026.96,2030.00,3292.91,2999.05,3390.03,599.72,595.86,6.58,0000 0000 0000 0000 000000
2016-08-15 11:49:46,0.02,0.34,0.00,25.88,29.23,31.84,14.33,44.23,1027.21,2030.00,3292.12,2998.99,3389.86,599.57,596.15,6.63,0000 0000 0000 0000 000000
2016-08-15 11:54:47,0.01,0.34,0.00,25.82,29.22,31.84,14.41,44.38,1027.26,2030.00,3291.99,2998.96,3389.22,599.83,596.42,6.68,0000 0000 0000 0000 000000
2016-08-15 11:59:49,0.02,0.34,0.00,25.74,29.22,31.84,14.47,44.41,1027.36,2030.00,3291.41,2998.80,3389.00,600.45,597.28,6.73,0000 0000 0000 0000 000000
2016-08-15 12:04:49,0.03,0.34,0.00,25.69,29.22,31.85,14.44,44.35,1027.37,2029.99,3290.97,2998.17,3388.56,600.45,597.41,6.78,0000 0000 0000 0000 000000
2016-08-15 12:09:51,0.02,0.34,0.00,25.63,29.22,31.85,14.46,44.34,1027.38,2029.99,3290.22,2998.00,3388.01,600.37,597.42,6.83,0000 0000 0000 0000 000000
2016-08-15 12:14:52,0.00,0.34,0.00,25.58,29.20,31.84,14.39,44.24,1027.37,2029.99,3289.99,2998.00,3387.92,599.65,596.83,6.89,0000 0000 0000 0000 000000
2016-08-15 12:19:53,0.04,0.34,0.00,25.54,29.20,31.84,14.50,44.34,1027.38,2029.99,3289.33,2997.59,3387.14,600.11,597.34,6.94,0000 0000 0000 0000 000000
2016-08-15 12:24:55,0.03,0.34,0.00,25.50,29.19,31.81,14.42,44.37,1027.36,2029.99,3288.67,2997.03,3386.43,600.01,597.36,6.99,0000 0000 0000 0000 000000
2016-08-15 12:29:56,0.01,0.35,0.00,25.47,29.17,31.81,14.41,44.27,1027.42,2029.99,3288.03,2996.64,3385.97,600.24,597.58,7.04,0000 0000 0000 0000 000000
2016-08-15 12:34:57,0.03,0.35,0.00,25.45,29.17,31.80,14.44,44.33,1027.57,2029.99,3287.59,2996.08,3385.24,599.97,597.56,7.09,0000 0000 0000 0000 000000
2016-08-15 12:39:58,0.06,0.35,0.00,25.43,29.15,31.80,14.50,44.32,1027.62,2029.99,3286.44,2995.18,3384.07,600.15,597.73,7.14,0000 0000 0000 0000 000000
2016-08-15 12:44:59,0.01,0.35,0.00,25.41,29.15,31.78,14.46,44.29,1027.79,2029.99,3286.00,2994.97,3383.39,599.98,597.63,7.19,0000 0000 0000 0000 000000
2016-08-15 12:50:01,0.01,0.35,0.00,25.39,29.12,31.79,14.44,44.29,1027.84,2029.99,3285.85,2994.81,3383.02,600.31,598.07,7.24,0000 0000 0000 0000 000000
2016-08-15 12:55:02,0.02,0.35,0.00,25.37,29.12,31.77,14.49,44.23,1027.73,2030.00,3285.16,2994.38,3382.99,600.04,597.76,7.29,0000 0000 0000 0000 000000
2016-08-15 13:00:03,0.01,0.35,0.00,25.35,29.10,31.75,14.51,44.30,1027.47,2030.01,3284.94,2994.27,3382.84,600.25,597.95,7.34,0000 0000 0000 0000 000000
2016-08-15 13:05:05,0.08,0.36,0.00,25.33,29.10,31.74,14.43,44.14,1027.80,2030.04,3283.66,2993.66,3381.73,600.09,598.01,7.39,0000 0000 0000 0000 000000
2016-08-15 13:10:06,0.04,0.36,0.00,25.32,29.07,31.74,14.35,44.34,1027.43,2030.13,3282.16,2993.01,3380.97,599.87,597.56,7.44,0000 0000 0000 0000 000000
2016-08-15 13:15:07,0.04,0.36,0.00,25.30,29.07,31.72,14.45,44.26,1027.58,2030.30,3281.77,2992.96,3380.16,600.07,597.89,7.49,0000 0000 0000 0000 000000
2016-08-15 13:20:09,0.04,0.36,0.00,25.28,29.05,31.71,14.50,44.22,1027.81,2030.75,3281.09,2992.93,3380.00,600.00,597.95,7.54,0000 0000 0000 0000 000000
2016-08-15 13:25:10,0.01,0.37,0.00,25.27,29.05,31.69,14.50,44.23,1027.65,2030.86,3281.00,2992.94,3379.99,600.03,598.03,7.59,0000 0000 0000 0000 000000
2016-08-15 13:30:11,0.01,0.37,0.00,25.25,29.04,31.70,14.45,44.26,1027.83,2030.96,3280.87,2992.90,3379.86,599.98,598.10,7.64,0000 0000 0000 0000 000000
2016-08-15 13:35:12,0.07,0.37,0.00,25.23,29.02,31.68,14.45,44.15,1027.71,2030.96,3279.26,2992.06,3378.94,600.07,598.10,7.69,0000 0000 0000 0000 000000
2016-08-15 13:40:14,0.01,0.37,0.00,25.21,29.02,31.68,14.49,44.13,1027.61,2030.93,3279.00,2992.00,3378.26,600.07,598.14,7.74,0000 0000 0000 0000 000000
2016-08-15 13:45:15,0.00,0.37,0.00,25.20,29.02,31.68,14.50,44.09,1027.77,2030.97,3278.99,2992.00,3378.08,600.29,598.52,7.79,0000 0000 0000 0000 000000